Time,TemperatureF,DewpointF,PressureIn,WindDirection,WindDirectionDegrees,WindSpeedMPH,WindSpeedGustMPH,Humidity,HourlyPrecipIn,Conditions,Clouds,dailyrainin,SoftwareType,DateUTC
2013-03-26 00:03:00,30.7,25.3,29.85,West,270,1.1,2.2,80,0.00,,,0.25,VWS V14.01,2013-03-26 04:03:00,
2013-03-26 00:08:00,30.7,25.6,29.85,ENE,68,1.3,3.1,81,0.00,,,0.25,VWS V14.01,2013-03-26 04:08:00,
2013-03-26 00:13:00,30.6,25.4,29.85,WNW,292,2.2,2.5,81,0.00,,,0.25,VWS V14.01,2013-03-26 04:13:00,
2013-03-26 00:18:00,30.6,25.7,29.85,West,270,1.3,3.1,82,0.00,,,0.25,VWS V14.01,2013-03-26 04:18:00,
2013-03-26 00:23:00,30.6,25.7,29.85,NW,315,1.1,1.6,82,0.00,,,0.25,VWS V14.01,2013-03-26 04:23:00,
2013-03-26 00:28:00,30.4,25.5,29.85,West,270,1.3,1.6,82,0.00,,,0.25,VWS V14.01,2013-03-26 04:28:00,
2013-03-26 00:33:00,30.4,25.5,29.85,NW,315,2.2,2.2,82,0.00,,,0.25,VWS V14.01,2013-03-26 04:33:00,
2013-03-26 00:38:00,30.4,25.9,29.85,NW,315,0.0,2.5,83,0.00,,,0.25,VWS V14.01,2013-03-26 04:38:00,
2013-03-26 00:43:00,30.4,25.9,29.85,SSW,202,2.9,5.8,83,0.00,,,0.25,VWS V14.01,2013-03-26 04:43:00,
2013-03-26 00:48:00,30.6,26.0,29.85,SW,225,3.1,4.0,83,0.00,,,0.25,VWS V14.01,2013-03-26 04:48:00,
2013-03-26 00:53:00,30.7,26.2,29.85,East,90,1.3,5.4,83,0.00,,,0.25,VWS V14.01,2013-03-26 04:53:00,
2013-03-26 00:58:00,30.9,25.5,29.85,ESE,112,3.6,7.4,80,0.00,,,0.25,VWS V14.01,2013-03-26 04:58:00,
2013-03-26 01:03:00,30.9,25.5,29.85,WSW,248,2.7,6.5,80,0.00,,,0.00,VWS V14.01,2013-03-26 05:03:00,
2013-03-26 01:08:00,30.9,25.2,29.85,West,270,2.0,4.0,79,0.00,,,0.00,VWS V14.01,2013-03-26 05:08:00,
2013-03-26 01:13:00,30.9,25.2,29.85,NW,315,1.6,5.8,79,0.00,,,0.00,VWS V14.01,2013-03-26 05:13:00,
2013-03-26 01:18:00,30.9,25.2,29.85,West,270,2.9,4.9,79,0.00,,,0.00,VWS V14.01,2013-03-26 05:18:00,
2013-03-26 01:23:00,30.9,25.2,29.85,NE,45,1.3,4.7,79,0.00,,,0.00,VWS V14.01,2013-03-26 05:23:00,
2013-03-26 01:28:00,30.9,25.2,29.85,West,270,2.2,3.6,79,0.00,,,0.00,VWS V14.01,2013-03-26 05:28:00,
2013-03-26 01:33:00,30.9,25.2,29.85,NW,315,0.0,2.7,79,0.00,,,0.00,VWS V14.01,2013-03-26 05:33:00,
2013-03-26 01:38:00,30.7,25.0,29.85,West,270,1.1,4.0,79,0.00,,,0.00,VWS V14.01,2013-03-26 05:38:00,
2013-03-26 01:43:00,30.7,25.3,29.85,South,180,2.9,2.9,80,0.00,,,0.00,VWS V14.01,2013-03-26 05:43:00,
2013-03-26 01:48:00,30.7,25.3,29.88,WSW,248,2.0,6.5,80,0.00,,,0.00,VWS V14.01,2013-03-26 05:48:00,
2013-03-26 01:53:00,30.7,25.3,29.88,NW,315,1.1,3.1,80,0.00,,,0.00,VWS V14.01,2013-03-26 05:53:00,
2013-03-26 01:58:00,30.7,25.3,29.88,West,270,4.0,5.4,80,0.00,,,0.00,VWS V14.01,2013-03-26 05:58:00,
2013-03-26 02:03:00,30.7,25.3,29.88,NW,315,1.6,3.6,80,0.00,,,0.00,VWS V14.01,2013-03-26 06:03:00,
2013-03-26 02:08:00,30.6,25.4,29.88,NW,315,0.9,1.6,81,0.00,,,0.00,VWS V14.01,2013-03-26 06:08:00,
2013-03-26 02:13:00,30.6,25.1,29.88,SSW,202,0.0,2.0,80,0.00,,,0.00,VWS V14.01,2013-03-26 06:13:00,
2013-03-26 02:18:00,30.6,25.4,29.88,South,180,0.9,2.0,81,0.00,,,0.00,VWS V14.01,2013-03-26 06:18:00,
2013-03-26 02:23:00,30.7,25.6,29.88,South,180,2.5,5.8,81,0.00,,,0.00,VWS V14.01,2013-03-26 06:23:00,
2013-03-26 02:28:00,30.6,25.4,29.88,SSW,202,2.0,2.9,81,0.00,,,0.00,VWS V14.01,2013-03-26 06:28:00,
2013-03-26 02:33:00,30.7,25.9,29.88,South,180,2.7,2.7,82,0.00,,,0.00,VWS V14.01,2013-03-26 06:33:00,
2013-03-26 02:38:00,30.7,25.6,29.88,NW,315,0.9,3.1,81,0.00,,,0.00,VWS V14.01,2013-03-26 06:38:00,
2013-03-26 02:42:00,30.6,25.4,29.88,WSW,248,1.3,2.7,81,0.00,,,0.00,VWS V14.01,2013-03-26 06:42:00,
2013-03-26 02:47:00,30.7,25.9,29.88,SW,225,0.0,3.8,82,0.00,,,0.00,VWS V14.01,2013-03-26 06:47:00,
2013-03-26 02:52:00,30.7,25.6,29.88,SSW,202,1.1,3.4,81,0.00,,,0.00,VWS V14.01,2013-03-26 06:52:00,
2013-03-26 02:58:00,30.6,25.1,29.88,West,270,0.0,2.0,80,0.00,,,0.00,VWS V14.01,2013-03-26 06:58:00,
2013-03-26 03:03:00,30.6,25.1,29.85,South,180,3.6,3.6,80,0.00,,,0.00,VWS V14.01,2013-03-26 07:03:00,
2013-03-26 03:08:00,30.7,25.6,29.85,SW,225,2.0,4.0,81,0.00,,,0.00,VWS V14.01,2013-03-26 07:08:00,
2013-03-26 03:13:00,30.6,25.1,29.85,NNW,338,2.7,2.7,80,0.00,,,0.00,VWS V14.01,2013-03-26 07:13:00,
2013-03-26 03:18:00,30.7,25.3,29.88,WSW,248,1.3,3.8,80,0.00,,,0.00,VWS V14.01,2013-03-26 07:18:00,
2013-03-26 03:23:00,30.9,25.5,29.88,South,180,2.5,4.9,80,0.00,,,0.00,VWS V14.01,2013-03-26 07:23:00,
2013-03-26 03:28:00,30.9,25.5,29.88,SW,225,2.5,3.4,80,0.00,,,0.00,VWS V14.01,2013-03-26 07:28:00,
2013-03-26 03:33:00,30.9,25.5,29.88,West,270,3.4,4.3,80,0.00,,,0.00,VWS V14.01,2013-03-26 07:33:00,
2013-03-26 03:38:00,30.9,25.2,29.88,WSW,248,2.5,3.8,79,0.00,,,0.00,VWS V14.01,2013-03-26 07:38:00,
2013-03-26 03:43:00,30.9,25.5,29.88,SW,225,0.0,3.8,80,0.00,,,0.00,VWS V14.01,2013-03-26 07:43:00,
2013-03-26 03:48:00,30.9,25.2,29.88,NW,315,0.0,2.2,79,0.00,,,0.00,VWS V14.01,2013-03-26 07:48:00,
2013-03-26 03:53:00,30.9,25.2,29.88,WSW,248,0.0,3.6,79,0.00,,,0.00,VWS V14.01,2013-03-26 07:53:00,
2013-03-26 03:58:00,30.9,25.2,29.88,WSW,248,2.9,6.0,79,0.00,,,0.00,VWS V14.01,2013-03-26 07:58:00,
2013-03-26 04:03:00,30.9,25.2,29.88,WSW,248,1.1,5.6,79,0.00,,,0.00,VWS V14.01,2013-03-26 08:03:00,
2013-03-26 04:08:00,31.1,25.4,29.88,SW,225,1.1,6.0,79,0.00,,,0.00,VWS V14.01,2013-03-26 08:08:00,
2013-03-26 04:13:00,31.1,25.4,29.88,SW,225,2.0,3.1,79,0.00,,,0.00,VWS V14.01,2013-03-26 08:13:00,
2013-03-26 04:18:00,31.1,25.4,29.88,WSW,248,2.5,2.9,79,0.00,,,0.00,VWS V14.01,2013-03-26 08:18:00,
2013-03-26 04:23:00,31.1,25.4,29.88,WSW,248,3.8,6.5,79,0.00,,,0.00,VWS V14.01,2013-03-26 08:23:00,
2013-03-26 04:28:00,31.1,25.4,29.88,South,180,2.7,5.6,79,0.00,,,0.00,VWS V14.01,2013-03-26 08:28:00,
2013-03-26 04:33:00,31.1,25.4,29.88,SE,135,2.7,4.9,79,0.00,,,0.00,VWS V14.01,2013-03-26 08:33:00,
2013-03-26 04:38:00,31.1,25.4,29.88,NNE,22,0.0,6.3,79,0.00,,,0.00,VWS V14.01,2013-03-26 08:38:00,
2013-03-26 04:43:00,31.1,25.4,29.88,SSE,158,3.6,7.2,79,0.00,,,0.00,VWS V14.01,2013-03-26 08:43:00,
2013-03-26 04:48:00,31.1,25.4,29.88,SW,225,2.2,5.8,79,0.00,,,0.00,VWS V14.01,2013-03-26 08:48:00,
2013-03-26 04:53:00,31.1,25.4,29.88,West,270,2.0,3.8,79,0.00,,,0.00,VWS V14.01,2013-03-26 08:53:00,
2013-03-26 04:58:00,31.1,25.4,29.88,SW,225,1.3,2.9,79,0.00,,,0.00,VWS V14.01,2013-03-26 08:58:00,
2013-03-26 05:03:00,31.1,25.4,29.88,WSW,248,1.3,3.4,79,0.00,,,0.00,VWS V14.01,2013-03-26 09:03:00,
2013-03-26 05:08:00,31.1,25.4,29.88,East,90,1.3,3.8,79,0.00,,,0.00,VWS V14.01,2013-03-26 09:08:00,
2013-03-26 05:13:00,31.1,25.4,29.88,SE,135,2.0,3.4,79,0.00,,,0.00,VWS V14.01,2013-03-26 09:13:00,
2013-03-26 05:18:00,30.9,25.5,29.88,WSW,248,0.9,2.9,80,0.00,,,0.00,VWS V14.01,2013-03-26 09:18:00,
2013-03-26 05:23:00,31.1,25.4,29.88,WSW,248,2.5,3.1,79,0.00,,,0.00,VWS V14.01,2013-03-26 09:23:00,
2013-03-26 05:28:00,30.9,25.5,29.88,SW,225,1.3,3.8,80,0.00,,,0.00,VWS V14.01,2013-03-26 09:28:00,
2013-03-26 05:33:00,30.9,25.5,29.88,SW,225,2.5,3.1,80,0.00,,,0.00,VWS V14.01,2013-03-26 09:33:00,
2013-03-26 05:38:00,31.1,25.7,29.88,West,270,2.5,4.9,80,0.00,,,0.00,VWS V14.01,2013-03-26 09:38:00,
2013-03-26 05:43:00,30.9,25.5,29.88,West,270,1.1,1.6,80,0.00,,,0.00,VWS V14.01,2013-03-26 09:43:00,
2013-03-26 05:48:00,30.9,25.5,29.88,ENE,68,1.3,3.8,80,0.00,,,0.00,VWS V14.01,2013-03-26 09:48:00,
2013-03-26 05:53:00,30.9,25.5,29.88,WNW,292,2.9,7.4,80,0.00,,,0.00,VWS V14.01,2013-03-26 09:53:00,
2013-03-26 05:58:00,31.1,25.7,29.88,NW,315,3.1,4.7,80,0.00,,,0.00,VWS V14.01,2013-03-26 09:58:00,
2013-03-26 06:03:00,30.9,25.5,29.91,West,270,4.7,5.4,80,0.00,,,0.00,VWS V14.01,2013-03-26 10:03:00,
2013-03-26 06:08:00,31.1,25.7,29.91,West,270,1.6,5.8,80,0.00,,,0.00,VWS V14.01,2013-03-26 10:08:00,
2013-03-26 06:13:00,30.9,25.5,29.91,NW,315,1.1,3.6,80,0.00,,,0.00,VWS V14.01,2013-03-26 10:13:00,
2013-03-26 06:18:00,31.1,25.7,29.91,East,90,1.1,4.3,80,0.00,,,0.00,VWS V14.01,2013-03-26 10:18:00,
2013-03-26 06:23:00,30.9,25.5,29.91,West,270,4.0,4.0,80,0.00,,,0.00,VWS V14.01,2013-03-26 10:23:00,
2013-03-26 06:27:00,31.1,25.7,29.91,NW,315,1.3,4.9,80,0.00,,,0.00,VWS V14.01,2013-03-26 10:27:00,
2013-03-26 06:32:00,30.9,25.8,29.91,West,270,1.6,6.0,81,0.00,,,0.00,VWS V14.01,2013-03-26 10:32:00,
2013-03-26 06:37:00,30.9,25.8,29.91,NW,315,0.9,2.7,81,0.00,,,0.00,VWS V14.01,2013-03-26 10:37:00,
2013-03-26 06:42:00,30.7,25.6,29.91,NW,315,1.6,2.5,81,0.00,,,0.00,VWS V14.01,2013-03-26 10:42:00,
2013-03-26 06:47:00,30.7,25.6,29.91,WNW,292,2.2,3.8,81,0.00,,,0.00,VWS V14.01,2013-03-26 10:47:00,
2013-03-26 06:52:00,30.7,25.9,29.91,West,270,0.0,2.5,82,0.00,,,0.00,VWS V14.01,2013-03-26 10:52:00,
2013-03-26 06:57:00,30.6,25.7,29.91,North,0,0.9,2.7,82,0.00,,,0.00,VWS V14.01,2013-03-26 10:57:00,
2013-03-26 07:02:00,30.6,25.7,29.91,West,270,0.0,2.7,82,0.00,,,0.00,VWS V14.01,2013-03-26 11:02:00,
2013-03-26 07:07:00,30.6,26.0,29.91,NW,315,2.9,3.4,83,0.00,,,0.00,VWS V14.01,2013-03-26 11:07:00,
2013-03-26 07:12:00,30.4,25.9,29.91,NW,315,2.0,2.9,83,0.00,,,0.00,VWS V14.01,2013-03-26 11:12:00,
2013-03-26 07:17:00,30.4,25.9,29.91,NNW,338,0.0,2.9,83,0.00,,,0.00,VWS V14.01,2013-03-26 11:17:00,
2013-03-26 07:23:00,30.4,26.1,29.91,NW,315,2.5,3.1,84,0.00,,,0.00,VWS V14.01,2013-03-26 11:23:00,
2013-03-26 07:27:00,30.4,26.1,29.91,NNW,338,2.0,3.8,84,0.00,,,0.00,VWS V14.01,2013-03-26 11:27:00,
2013-03-26 07:32:00,30.4,26.4,29.91,NW,315,2.0,3.8,85,0.00,,,0.00,VWS V14.01,2013-03-26 11:32:00,
2013-03-26 07:37:00,30.4,26.4,29.91,NNW,338,2.5,2.9,85,0.00,,,0.00,VWS V14.01,2013-03-26 11:37:00,
2013-03-26 07:42:00,30.4,26.4,29.91,WNW,292,0.9,2.7,85,0.00,,,0.00,VWS V14.01,2013-03-26 11:42:00,
2013-03-26 07:47:00,30.6,26.6,29.91,NW,315,1.3,2.7,85,0.00,,,0.00,VWS V14.01,2013-03-26 11:47:00,
2013-03-26 07:52:00,30.6,26.6,29.91,NNW,338,1.3,2.5,85,0.00,,,0.00,VWS V14.01,2013-03-26 11:52:00,
2013-03-26 07:57:00,30.7,26.8,29.91,North,0,2.5,3.4,85,0.00,,,0.00,VWS V14.01,2013-03-26 11:57:00,
2013-03-26 08:02:00,30.7,26.8,29.94,NW,315,1.6,2.7,85,0.00,,,0.00,VWS V14.01,2013-03-26 12:02:00,
2013-03-26 08:07:00,30.9,27.0,29.94,NW,315,2.0,3.4,85,0.00,,,0.00,VWS V14.01,2013-03-26 12:07:00,
2013-03-26 08:12:00,31.1,27.4,29.94,WNW,292,2.0,2.0,86,0.00,,,0.00,VWS V14.01,2013-03-26 12:12:00,
2013-03-26 08:17:00,31.3,27.3,29.94,WNW,292,0.0,0.9,85,0.00,,,0.00,VWS V14.01,2013-03-26 12:17:00,
2013-03-26 08:22:00,31.5,27.5,29.94,SSW,202,0.9,2.9,85,0.00,,,0.00,VWS V14.01,2013-03-26 12:22:00,
2013-03-26 08:27:00,31.6,27.7,29.94,WNW,292,1.6,3.8,85,0.00,,,0.00,VWS V14.01,2013-03-26 12:27:00,
2013-03-26 08:32:00,31.8,27.8,29.94,North,0,2.0,2.9,85,0.00,,,0.00,VWS V14.01,2013-03-26 12:32:00,
2013-03-26 08:37:00,31.6,27.4,29.94,WNW,292,3.1,6.5,84,0.00,,,0.00,VWS V14.01,2013-03-26 12:37:00,
2013-03-26 08:42:00,31.8,27.5,29.94,ESE,112,1.6,4.0,84,0.00,,,0.00,VWS V14.01,2013-03-26 12:42:00,
2013-03-26 08:47:00,32.2,27.9,29.94,WSW,248,2.0,3.8,84,0.00,,,0.00,VWS V14.01,2013-03-26 12:47:00,
2013-03-26 08:52:00,32.2,27.6,29.94,West,270,3.6,4.3,83,0.00,,,0.00,VWS V14.01,2013-03-26 12:52:00,
2013-03-26 08:57:00,32.5,28.0,29.94,NNW,338,4.0,4.0,83,0.00,,,0.00,VWS V14.01,2013-03-26 12:57:00,
2013-03-26 09:03:00,32.5,27.4,29.97,NNW,338,9.8,9.8,81,0.00,,,0.00,VWS V14.01,2013-03-26 13:03:00,
2013-03-26 09:08:00,33.3,28.1,29.97,West,270,1.6,7.2,81,0.00,,,0.00,VWS V14.01,2013-03-26 13:08:00,
2013-03-26 09:13:00,33.8,28.3,29.97,NW,315,4.0,4.9,80,0.00,,,0.00,VWS V14.01,2013-03-26 13:13:00,
2013-03-26 09:18:00,34.3,28.2,29.97,NW,315,2.5,4.3,78,0.00,,,0.00,VWS V14.01,2013-03-26 13:18:00,
2013-03-26 09:23:00,34.2,27.7,29.97,NNW,338,8.1,8.1,77,0.00,,,0.00,VWS V14.01,2013-03-26 13:23:00,
2013-03-26 09:28:00,34.5,27.8,29.97,WNW,292,3.8,4.0,76,0.00,,,0.00,VWS V14.01,2013-03-26 13:28:00,
2013-03-26 09:33:00,34.3,27.2,29.97,North,0,2.7,5.8,75,0.00,,,0.00,VWS V14.01,2013-03-26 13:33:00,
2013-03-26 09:38:00,33.8,26.4,29.97,NNW,338,2.7,12.5,74,0.00,,,0.00,VWS V14.01,2013-03-26 13:38:00,
2013-03-26 09:43:00,34.0,26.9,29.97,SSE,158,2.5,8.1,75,0.00,,,0.00,VWS V14.01,2013-03-26 13:43:00,
2013-03-26 09:48:00,34.0,26.9,29.97,WSW,248,2.5,4.9,75,0.00,,,0.00,VWS V14.01,2013-03-26 13:48:00,
2013-03-26 09:53:00,34.2,27.1,29.97,NW,315,1.6,4.0,75,0.00,,,0.00,VWS V14.01,2013-03-26 13:53:00,
2013-03-26 09:58:00,34.0,26.6,29.97,NNW,338,5.6,8.7,74,0.00,,,0.00,VWS V14.01,2013-03-26 13:58:00,
2013-03-26 10:03:00,34.2,27.1,29.94,NNW,338,4.0,7.8,75,0.00,,,0.00,VWS V14.01,2013-03-26 14:03:00,
2013-03-26 10:08:00,34.3,27.2,29.94,NNW,338,2.0,3.8,75,0.00,,,0.00,VWS V14.01,2013-03-26 14:08:00,
2013-03-26 10:13:00,34.7,27.6,29.94,NNE,22,1.1,2.9,75,0.00,,,0.00,VWS V14.01,2013-03-26 14:13:00,
2013-03-26 10:18:00,34.7,27.6,29.97,NW,315,3.4,4.7,75,0.00,,,0.00,VWS V14.01,2013-03-26 14:18:00,
2013-03-26 10:23:00,34.5,27.1,29.97,NW,315,5.8,9.6,74,0.00,,,0.00,VWS V14.01,2013-03-26 14:23:00,
2013-03-26 10:28:00,34.7,27.3,29.97,NNW,338,2.0,4.9,74,0.00,,,0.00,VWS V14.01,2013-03-26 14:28:00,
2013-03-26 10:33:00,35.8,28.0,29.97,NW,315,1.1,5.4,73,0.00,,,0.00,VWS V14.01,2013-03-26 14:33:00,
2013-03-26 10:38:00,36.0,27.8,29.97,WSW,248,3.4,5.6,72,0.00,,,0.00,VWS V14.01,2013-03-26 14:38:00,
2013-03-26 10:43:00,36.0,27.5,29.97,NW,315,0.9,3.4,71,0.00,,,0.00,VWS V14.01,2013-03-26 14:43:00,
2013-03-26 10:48:00,35.8,27.3,30.00,East,90,3.8,7.2,71,0.00,,,0.00,VWS V14.01,2013-03-26 14:48:00,
2013-03-26 10:53:00,35.1,26.3,30.00,NNW,338,2.9,5.4,70,0.00,,,0.00,VWS V14.01,2013-03-26 14:53:00,
2013-03-26 10:58:00,34.9,26.5,30.00,WSW,248,0.9,5.6,71,0.00,,,0.00,VWS V14.01,2013-03-26 14:58:00,
2013-03-26 11:02:00,34.5,26.4,30.00,SSW,202,3.4,4.7,72,0.00,,,0.00,VWS V14.01,2013-03-26 15:02:00,
2013-03-26 11:07:00,34.5,26.4,30.00,West,270,2.7,3.4,72,0.00,,,0.00,VWS V14.01,2013-03-26 15:07:00,
2013-03-26 11:12:00,34.3,26.6,30.00,NW,315,2.5,5.6,73,0.00,,,0.00,VWS V14.01,2013-03-26 15:12:00,
2013-03-26 11:17:00,34.5,26.8,30.00,West,270,2.5,5.4,73,0.00,,,0.00,VWS V14.01,2013-03-26 15:17:00,
2013-03-26 11:22:00,34.3,26.6,30.00,NW,315,3.6,5.8,73,0.00,,,0.00,VWS V14.01,2013-03-26 15:22:00,
2013-03-26 11:27:00,34.2,26.8,30.00,SSE,158,2.5,6.5,74,0.00,,,0.00,VWS V14.01,2013-03-26 15:27:00,
2013-03-26 11:32:00,34.3,26.9,30.03,North,0,4.3,5.8,74,0.00,,,0.00,VWS V14.01,2013-03-26 15:32:00,
2013-03-26 11:37:00,35.1,28.0,30.03,NW,315,3.8,5.8,75,0.00,,,0.00,VWS V14.01,2013-03-26 15:37:00,
2013-03-26 11:42:00,35.1,27.0,30.03,NNW,338,2.0,8.5,72,0.00,,,0.00,VWS V14.01,2013-03-26 15:42:00,
2013-03-26 11:47:00,35.4,27.3,30.03,NW,315,3.6,7.4,72,0.00,,,0.00,VWS V14.01,2013-03-26 15:47:00,
2013-03-26 11:52:00,35.6,27.1,30.03,North,0,4.7,5.8,71,0.00,,,0.00,VWS V14.01,2013-03-26 15:52:00,
2013-03-26 11:57:00,36.1,27.7,30.03,NW,315,4.0,4.7,71,0.00,,,0.00,VWS V14.01,2013-03-26 15:57:00,
2013-03-26 12:02:00,36.1,26.6,30.03,NNW,338,7.6,8.5,68,0.00,,,0.00,VWS V14.01,2013-03-26 16:02:00,
2013-03-26 12:07:00,36.0,26.4,30.03,NNW,338,4.3,6.3,68,0.00,,,0.00,VWS V14.01,2013-03-26 16:07:00,
2013-03-26 12:12:00,35.6,26.1,30.03,NW,315,3.1,4.9,68,0.00,,,0.00,VWS V14.01,2013-03-26 16:12:00,
2013-03-26 12:17:00,35.6,26.5,30.03,West,270,1.3,4.0,69,0.00,,,0.00,VWS V14.01,2013-03-26 16:17:00,
2013-03-26 12:22:00,36.3,27.5,30.03,West,270,1.1,5.8,70,0.00,,,0.00,VWS V14.01,2013-03-26 16:22:00,
2013-03-26 12:27:00,35.8,26.6,30.03,SE,135,1.6,4.9,69,0.00,,,0.00,VWS V14.01,2013-03-26 16:27:00,
2013-03-26 12:32:00,36.1,27.3,30.00,NNW,338,2.5,5.6,70,0.00,,,0.00,VWS V14.01,2013-03-26 16:32:00,
2013-03-26 12:37:00,35.8,27.0,30.00,WNW,292,4.7,6.3,70,0.00,,,0.00,VWS V14.01,2013-03-26 16:37:00,
2013-03-26 12:42:00,36.3,27.5,30.00,NNW,338,4.0,4.7,70,0.00,,,0.00,VWS V14.01,2013-03-26 16:42:00,
2013-03-26 12:47:00,35.8,27.0,30.03,North,0,2.7,5.6,70,0.00,,,0.00,VWS V14.01,2013-03-26 16:47:00,
2013-03-26 12:52:00,35.6,27.1,30.03,NNW,338,3.4,5.8,71,0.00,,,0.00,VWS V14.01,2013-03-26 16:52:00,
2013-03-26 12:57:00,36.7,28.2,30.03,West,270,2.5,4.9,71,0.00,,,0.00,VWS V14.01,2013-03-26 16:57:00,
2013-03-26 13:02:00,37.0,28.2,30.00,NNW,338,3.1,5.6,70,0.00,,,0.00,VWS V14.01,2013-03-26 17:02:00,
2013-03-26 13:07:00,37.8,28.2,30.00,NNW,338,5.4,5.4,68,0.00,,,0.00,VWS V14.01,2013-03-26 17:07:00,
2013-03-26 13:12:00,37.6,27.3,30.00,NW,315,2.5,6.3,66,0.00,,,0.00,VWS V14.01,2013-03-26 17:12:00,
2013-03-26 13:17:00,39.4,29.0,30.00,NNW,338,4.3,6.5,66,0.00,,,0.00,VWS V14.01,2013-03-26 17:17:00,
2013-03-26 13:22:00,40.6,29.8,30.00,NNW,338,2.9,5.8,65,0.00,,,0.00,VWS V14.01,2013-03-26 17:22:00,
2013-03-26 13:27:00,43.5,31.4,30.00,ENE,68,0.0,4.3,62,0.00,,,0.00,VWS V14.01,2013-03-26 17:27:00,
2013-03-26 13:32:00,44.2,30.0,30.03,NNW,338,3.1,4.0,57,0.00,,,0.00,VWS V14.01,2013-03-26 17:32:00,
2013-03-26 13:37:00,41.0,25.6,30.03,NNE,22,2.9,6.5,54,0.00,,,0.00,VWS V14.01,2013-03-26 17:37:00,
2013-03-26 13:42:00,41.7,27.2,30.03,WNW,292,3.6,6.5,56,0.00,,,0.00,VWS V14.01,2013-03-26 17:42:00,
2013-03-26 13:47:00,41.5,27.0,30.00,West,270,2.0,3.8,56,0.00,,,0.00,VWS V14.01,2013-03-26 17:47:00,
2013-03-26 13:52:00,39.2,24.8,30.00,NW,315,4.3,7.6,56,0.00,,,0.00,VWS V14.01,2013-03-26 17:52:00,
2013-03-26 13:57:00,38.5,25.0,30.00,NNW,338,5.6,6.9,58,0.00,,,0.00,VWS V14.01,2013-03-26 17:57:00,
2013-03-26 14:02:00,39.6,26.8,30.03,NW,315,2.7,5.6,60,0.00,,OVC020,0.00,VWS V14.01,2013-03-26 18:02:00,
2013-03-26 14:07:00,38.5,25.8,30.03,NW,315,3.1,4.9,60,0.00,,OVC020,0.00,VWS V14.01,2013-03-26 18:07:00,
2013-03-26 14:12:00,37.6,25.4,30.03,North,0,3.4,5.4,61,0.00,,OVC020,0.00,VWS V14.01,2013-03-26 18:12:00,
2013-03-26 14:17:00,37.4,26.0,30.03,North,0,3.4,6.5,63,0.00,,OVC020,0.00,VWS V14.01,2013-03-26 18:17:00,
2013-03-26 14:22:00,36.9,25.8,30.03,NW,315,3.1,4.9,64,0.00,,OVC020,0.00,VWS V14.01,2013-03-26 18:22:00,
2013-03-26 14:27:00,37.9,27.2,30.03,West,270,2.2,4.3,65,0.00,,OVC020,0.00,VWS V14.01,2013-03-26 18:27:00,
2013-03-26 14:32:00,37.6,26.9,30.03,NW,315,2.7,4.3,65,0.00,,OVC020,0.00,VWS V14.01,2013-03-26 18:32:00,
2013-03-26 14:37:00,37.6,26.9,30.03,NE,45,2.5,4.7,65,0.00,,OVC020,0.00,VWS V14.01,2013-03-26 18:37:00,
2013-03-26 14:42:00,38.8,28.5,30.03,East,90,0.0,5.4,66,0.00,,OVC020,0.00,VWS V14.01,2013-03-26 18:42:00,
2013-03-26 14:47:00,38.8,27.3,30.03,WNW,292,2.2,6.0,63,0.00,,OVC020,0.00,VWS V14.01,2013-03-26 18:47:00,
2013-03-26 14:52:00,39.6,27.2,30.03,NW,315,5.6,6.0,61,0.00,,OVC020,0.00,VWS V14.01,2013-03-26 18:52:00,
2013-03-26 14:57:00,39.0,26.3,30.03,East,90,3.6,4.0,60,0.00,,OVC020,0.00,VWS V14.01,2013-03-26 18:57:00,
2013-03-26 15:02:00,37.6,25.4,30.03,NW,315,2.9,7.8,61,0.00,,OVC036,0.00,VWS V14.01,2013-03-26 19:02:00,
2013-03-26 15:07:00,38.5,26.6,30.03,West,270,3.4,4.0,62,0.00,,OVC036,0.00,VWS V14.01,2013-03-26 19:07:00,
2013-03-26 15:12:00,39.4,27.5,30.03,West,270,3.4,3.4,62,0.00,,OVC036,0.00,VWS V14.01,2013-03-26 19:12:00,
2013-03-26 15:17:00,40.8,29.2,30.03,West,270,4.0,4.3,63,0.00,,OVC036,0.00,VWS V14.01,2013-03-26 19:17:00,
2013-03-26 15:22:00,41.2,28.4,30.03,NW,315,3.6,3.6,60,0.00,,OVC036,0.00,VWS V14.01,2013-03-26 19:22:00,
2013-03-26 15:27:00,40.5,27.3,30.03,NW,315,4.0,4.3,59,0.00,,OVC036,0.00,VWS V14.01,2013-03-26 19:27:00,
2013-03-26 15:32:00,38.8,26.6,30.03,WNW,292,2.5,6.0,61,0.00,,OVC036,0.00,VWS V14.01,2013-03-26 19:32:00,
2013-03-26 15:38:00,38.5,26.6,30.03,West,270,2.7,4.0,62,0.00,,OVC036,0.00,VWS V14.01,2013-03-26 19:38:00,
2013-03-26 15:43:00,40.5,30.0,30.03,West,270,1.1,2.5,66,0.00,,OVC036,0.00,VWS V14.01,2013-03-26 19:43:00,
2013-03-26 15:48:00,42.3,31.4,30.03,NNE,22,0.0,3.6,65,0.00,,OVC036,0.00,VWS V14.01,2013-03-26 19:48:00,
2013-03-26 15:53:00,43.0,30.5,30.03,North,0,1.1,4.7,61,0.04,,OVC036,0.04,VWS V14.01,2013-03-26 19:53:00,
2013-03-26 15:58:00,42.8,29.5,30.03,West,270,0.9,4.3,59,0.04,,OVC036,0.04,VWS V14.01,2013-03-26 19:58:00,
2013-03-26 16:03:00,44.1,30.7,30.03,NNW,338,2.7,4.3,59,0.04,,OVC065,0.04,VWS V14.01,2013-03-26 20:03:00,
2013-03-26 16:08:00,43.7,29.0,30.03,NNW,338,2.2,5.6,56,0.04,,OVC065,0.04,VWS V14.01,2013-03-26 20:08:00,
2013-03-26 16:13:00,44.4,29.7,30.03,NW,315,3.1,4.9,56,0.04,,OVC065,0.04,VWS V14.01,2013-03-26 20:13:00,
2013-03-26 16:18:00,45.1,30.0,30.03,WNW,292,4.0,4.0,55,0.04,,OVC065,0.04,VWS V14.01,2013-03-26 20:18:00,
2013-03-26 16:23:00,44.8,28.2,30.03,ESE,112,0.0,5.8,52,0.04,,OVC065,0.04,VWS V14.01,2013-03-26 20:23:00,
2013-03-26 16:28:00,47.1,29.0,30.03,NW,315,3.8,7.4,49,0.04,,OVC065,0.04,VWS V14.01,2013-03-26 20:28:00,
2013-03-26 16:33:00,46.8,28.1,30.03,NW,315,2.7,6.3,48,0.04,,OVC065,0.04,VWS V14.01,2013-03-26 20:33:00,
2013-03-26 16:38:00,45.5,27.5,30.03,NNE,22,2.9,5.4,49,0.04,,OVC065,0.04,VWS V14.01,2013-03-26 20:38:00,
2013-03-26 16:43:00,42.3,24.5,30.03,NW,315,2.7,7.6,49,0.04,,OVC065,0.04,VWS V14.01,2013-03-26 20:43:00,
2013-03-26 16:48:00,41.0,23.3,30.03,SW,225,3.6,7.8,49,0.04,,OVC065,0.04,VWS V14.01,2013-03-26 20:48:00,
2013-03-26 16:53:00,41.5,24.3,30.03,SSW,202,2.0,4.9,50,0.04,,OVC065,0.04,VWS V14.01,2013-03-26 20:53:00,
2013-03-26 16:58:00,42.3,25.4,30.03,SSW,202,2.5,5.4,51,0.00,,OVC065,0.04,VWS V14.01,2013-03-26 20:58:00,
2013-03-26 17:03:00,43.3,26.0,30.03,WNW,292,2.9,5.6,50,0.00,,OVC031,0.04,VWS V14.01,2013-03-26 21:03:00,
2013-03-26 17:08:00,42.8,25.0,30.03,SW,225,4.9,5.8,49,0.00,,OVC031,0.04,VWS V14.01,2013-03-26 21:08:00,
2013-03-26 17:13:00,42.1,24.3,30.03,WNW,292,2.0,6.0,49,0.00,,OVC031,0.04,VWS V14.01,2013-03-26 21:13:00,
2013-03-26 17:18:00,42.6,25.8,30.03,NE,45,2.5,3.6,51,0.00,,OVC031,0.04,VWS V14.01,2013-03-26 21:18:00,
2013-03-26 17:23:00,40.8,23.6,30.03,SSE,158,2.7,6.5,50,0.00,,OVC031,0.04,VWS V14.01,2013-03-26 21:23:00,
2013-03-26 17:28:00,40.3,23.6,30.03,West,270,4.3,7.8,51,0.00,,OVC031,0.04,VWS V14.01,2013-03-26 21:28:00,
2013-03-26 17:33:00,39.6,23.4,30.06,North,0,2.5,4.3,52,0.00,,OVC031,0.04,VWS V14.01,2013-03-26 21:33:00,
2013-03-26 17:38:00,39.0,22.9,30.06,WSW,248,3.4,6.0,52,0.00,,OVC031,0.04,VWS V14.01,2013-03-26 21:38:00,
2013-03-26 17:43:00,38.7,23.5,30.06,NW,315,2.0,4.3,54,0.00,,OVC031,0.04,VWS V14.01,2013-03-26 21:43:00,
2013-03-26 17:48:00,38.5,23.7,30.06,NNW,338,5.4,5.4,55,0.00,,OVC031,0.04,VWS V14.01,2013-03-26 21:48:00,
2013-03-26 17:53:00,38.5,23.7,30.06,SW,225,2.9,6.5,55,0.00,,OVC031,0.04,VWS V14.01,2013-03-26 21:53:00,
2013-03-26 17:58:00,37.8,23.9,30.06,SW,225,4.9,4.9,57,0.00,,OVC031,0.04,VWS V14.01,2013-03-26 21:58:00,
2013-03-26 18:03:00,37.0,23.6,30.09,WNW,292,2.0,5.4,58,0.00,,OVC029,0.04,VWS V14.01,2013-03-26 22:03:00,
2013-03-26 18:08:00,36.9,24.3,30.09,West,270,4.3,4.3,60,0.00,,OVC029,0.04,VWS V14.01,2013-03-26 22:08:00,
2013-03-26 18:13:00,36.3,23.8,30.09,West,270,2.9,6.3,60,0.00,,OVC029,0.04,VWS V14.01,2013-03-26 22:13:00,
2013-03-26 18:18:00,35.6,24.6,30.09,NW,315,3.6,6.0,64,0.00,,OVC029,0.04,VWS V14.01,2013-03-26 22:18:00,
2013-03-26 18:23:00,35.4,25.2,30.09,South,180,2.0,4.0,66,0.00,,OVC029,0.04,VWS V14.01,2013-03-26 22:23:00,
2013-03-26 18:28:00,34.9,26.5,30.09,SSW,202,2.5,4.7,71,0.00,,OVC029,0.04,VWS V14.01,2013-03-26 22:28:00,
2013-03-26 18:32:00,35.1,27.3,30.09,SW,225,1.3,2.9,73,0.00,,OVC029,0.04,VWS V14.01,2013-03-26 22:32:00,
2013-03-26 18:37:00,36.3,28.2,30.09,NNW,338,3.1,3.6,72,0.00,,OVC029,0.04,VWS V14.01,2013-03-26 22:37:00,
2013-03-26 18:42:00,37.4,28.9,30.09,NNE,22,0.0,3.6,71,0.00,,OVC029,0.04,VWS V14.01,2013-03-26 22:42:00,
2013-03-26 18:48:00,36.9,27.7,30.09,NW,315,2.5,2.7,69,0.00,,OVC029,0.04,VWS V14.01,2013-03-26 22:48:00,
2013-03-26 18:53:00,36.1,25.9,30.09,West,270,3.8,5.4,66,0.00,,OVC029,0.04,VWS V14.01,2013-03-26 22:53:00,
2013-03-26 18:58:00,35.8,25.5,30.09,SSW,202,1.6,2.9,66,0.00,,OVC029,0.04,VWS V14.01,2013-03-26 22:58:00,
2013-03-26 19:03:00,35.2,24.7,30.09,SW,225,2.7,4.5,65,0.00,,,0.04,VWS V14.01,2013-03-26 23:03:00,
2013-03-26 19:08:00,35.2,25.4,30.09,SW,225,0.0,4.3,67,0.00,,,0.04,VWS V14.01,2013-03-26 23:08:00,
2013-03-26 19:13:00,34.9,24.7,30.09,SW,225,0.0,5.6,66,0.00,,,0.04,VWS V14.01,2013-03-26 23:13:00,
2013-03-26 19:18:00,34.9,25.0,30.06,SW,225,3.8,3.8,67,0.00,,,0.04,VWS V14.01,2013-03-26 23:18:00,
2013-03-26 19:23:00,34.5,25.1,30.06,West,270,2.0,3.6,68,0.00,,,0.04,VWS V14.01,2013-03-26 23:23:00,
2013-03-26 19:28:00,34.5,25.1,30.06,South,180,2.2,3.8,68,0.00,,,0.04,VWS V14.01,2013-03-26 23:28:00,
2013-03-26 19:33:00,34.2,25.1,30.09,NW,315,2.2,3.8,69,0.00,,,0.04,VWS V14.01,2013-03-26 23:33:00,
2013-03-26 19:38:00,34.0,25.6,30.09,WSW,248,2.9,3.8,71,0.00,,,0.04,VWS V14.01,2013-03-26 23:38:00,
2013-03-26 19:43:00,33.8,25.7,30.09,West,270,2.2,4.5,72,0.00,,,0.04,VWS V14.01,2013-03-26 23:43:00,
2013-03-26 19:48:00,33.8,25.7,30.09,NE,45,1.6,3.4,72,0.00,,,0.04,VWS V14.01,2013-03-26 23:48:00,
2013-03-26 19:53:00,33.6,25.6,30.09,WSW,248,2.5,6.5,72,0.00,,,0.04,VWS V14.01,2013-03-26 23:53:00,
2013-03-26 19:58:00,33.8,25.4,30.09,SW,225,3.4,3.8,71,0.00,,,0.04,VWS V14.01,2013-03-26 23:58:00,
2013-03-26 20:03:00,33.6,25.6,30.09,SW,225,1.6,6.5,72,0.00,,OVC070,0.04,VWS V14.01,2013-03-27 00:03:00,
2013-03-26 20:08:00,33.4,25.7,30.09,WSW,248,2.5,4.0,73,0.00,,OVC070,0.04,VWS V14.01,2013-03-27 00:08:00,
2013-03-26 20:13:00,33.3,25.9,30.09,SSE,158,0.0,2.7,74,0.00,,OVC070,0.04,VWS V14.01,2013-03-27 00:13:00,
2013-03-26 20:18:00,33.3,25.9,30.12,NNW,338,1.3,4.7,74,0.00,,OVC070,0.04,VWS V14.01,2013-03-27 00:18:00,
2013-03-26 20:23:00,33.3,25.9,30.12,SW,225,0.0,5.4,74,0.00,,OVC070,0.04,VWS V14.01,2013-03-27 00:23:00,
2013-03-26 20:28:00,33.3,26.2,30.12,ESE,112,1.3,3.6,75,0.00,,OVC070,0.04,VWS V14.01,2013-03-27 00:28:00,
2013-03-26 20:33:00,33.3,26.2,30.12,West,270,0.9,3.6,75,0.04,,,0.08,VWS V14.01,2013-03-27 00:33:00,
2013-03-26 20:38:00,33.1,25.7,30.12,WNW,292,1.6,3.6,74,0.04,,,0.08,VWS V14.01,2013-03-27 00:38:00,
2013-03-26 20:43:00,33.1,26.0,30.12,NW,315,1.3,2.9,75,0.04,,,0.08,VWS V14.01,2013-03-27 00:43:00,
2013-03-26 20:48:00,33.1,26.0,30.12,South,180,0.0,2.7,75,0.04,,,0.08,VWS V14.01,2013-03-27 00:48:00,
2013-03-26 20:53:00,32.9,25.5,30.12,WSW,248,1.3,3.1,74,0.04,,,0.08,VWS V14.01,2013-03-27 00:53:00,
2013-03-26 20:58:00,33.1,25.7,30.12,SW,225,2.7,4.0,74,0.04,,,0.08,VWS V14.01,2013-03-27 00:58:00,
2013-03-26 21:03:00,33.3,25.9,30.12,SSW,202,2.0,7.2,74,0.04,,OVC070,0.08,VWS V14.01,2013-03-27 01:03:00,
2013-03-26 21:08:00,33.3,25.6,30.12,West,270,0.0,5.4,73,0.04,,OVC070,0.08,VWS V14.01,2013-03-27 01:08:00,
2013-03-26 21:13:00,33.3,25.9,30.12,WNW,292,3.4,3.8,74,0.04,,OVC070,0.08,VWS V14.01,2013-03-27 01:13:00,
2013-03-26 21:18:00,33.3,26.2,30.15,West,270,2.0,3.6,75,0.04,,OVC070,0.08,VWS V14.01,2013-03-27 01:18:00,
2013-03-26 21:23:00,33.1,26.4,30.15,West,270,2.0,4.0,76,0.04,,OVC070,0.08,VWS V14.01,2013-03-27 01:23:00,
2013-03-26 21:28:00,33.1,26.7,30.15,SSW,202,2.0,5.4,77,0.04,,OVC070,0.08,VWS V14.01,2013-03-27 01:28:00,
2013-03-26 21:33:00,33.1,27.0,30.15,West,270,3.6,4.9,78,0.04,,OVC070,0.08,VWS V14.01,2013-03-27 01:33:00,
2013-03-26 21:38:00,32.9,26.5,30.15,WNW,292,1.3,4.7,77,0.00,,OVC070,0.08,VWS V14.01,2013-03-27 01:38:00,
2013-03-26 21:43:00,32.9,26.8,30.15,SW,225,2.9,3.1,78,0.00,,OVC070,0.08,VWS V14.01,2013-03-27 01:43:00,
2013-03-26 21:48:00,32.9,26.5,30.15,North,0,2.7,4.0,77,0.00,,OVC070,0.08,VWS V14.01,2013-03-27 01:48:00,
2013-03-26 21:53:00,32.9,26.5,30.15,WSW,248,3.8,4.3,77,0.00,,OVC070,0.08,VWS V14.01,2013-03-27 01:53:00,
2013-03-26 21:58:00,33.1,26.4,30.15,WNW,292,4.0,5.6,76,0.00,,OVC070,0.08,VWS V14.01,2013-03-27 01:58:00,
2013-03-26 22:03:00,32.9,25.9,30.15,ENE,68,2.5,5.4,75,0.00,,,0.08,VWS V14.01,2013-03-27 02:03:00,
2013-03-26 22:08:00,33.1,26.4,30.15,West,270,2.9,5.4,76,0.00,,,0.08,VWS V14.01,2013-03-27 02:08:00,
2013-03-26 22:13:00,32.9,26.2,30.15,West,270,0.0,3.8,76,0.00,,,0.08,VWS V14.01,2013-03-27 02:13:00,
2013-03-26 22:18:00,32.9,26.2,30.15,WNW,292,1.6,3.8,76,0.00,,,0.08,VWS V14.01,2013-03-27 02:18:00,
2013-03-26 22:23:00,32.7,26.9,30.15,NW,315,6.3,10.1,79,0.00,,,0.08,VWS V14.01,2013-03-27 02:23:00,
2013-03-26 22:28:00,32.2,27.0,30.15,NNW,338,3.1,5.6,81,0.00,,,0.08,VWS V14.01,2013-03-27 02:28:00,
2013-03-26 22:33:00,32.2,27.6,30.12,WSW,248,1.3,4.3,83,0.00,,,0.08,VWS V14.01,2013-03-27 02:33:00,
2013-03-26 22:38:00,32.0,27.7,30.12,West,270,3.8,7.2,84,0.00,,,0.08,VWS V14.01,2013-03-27 02:38:00,
2013-03-26 22:43:00,32.2,27.6,30.12,SE,135,3.1,6.3,83,0.00,,,0.08,VWS V14.01,2013-03-27 02:43:00,
2013-03-26 22:48:00,32.0,27.1,30.15,ENE,68,2.0,5.6,82,0.00,,,0.08,VWS V14.01,2013-03-27 02:48:00,
2013-03-26 22:53:00,32.2,26.7,30.15,North,0,1.6,4.3,80,0.00,,,0.08,VWS V14.01,2013-03-27 02:53:00,
2013-03-26 22:58:00,32.0,26.5,30.15,SW,225,1.3,4.9,80,0.00,,,0.08,VWS V14.01,2013-03-27 02:58:00,
2013-03-26 23:01:00,31.6,26.2,30.15,WSW,248,1.1,2.0,80,0.00,,,0.08,VWS V14.01,2013-03-27 03:01:00,
2013-03-26 23:02:00,31.6,26.2,30.15,WNW,292,1.1,2.0,80,0.00,,,0.08,VWS V14.01,2013-03-27 03:02:00,
2013-03-26 23:03:00,32.2,26.7,30.15,NW,315,2.0,4.0,80,0.00,,,0.08,VWS V14.01,2013-03-27 03:03:00,
2013-03-26 23:04:00,31.6,25.9,30.15,NE,45,2.5,2.5,79,0.00,,,0.08,VWS V14.01,2013-03-27 03:04:00,
2013-03-26 23:05:00,31.6,25.9,30.15,West,270,1.6,3.6,79,0.00,,,0.08,VWS V14.01,2013-03-27 03:05:00,
2013-03-26 23:06:00,31.6,25.9,30.15,WNW,292,2.0,3.6,79,0.00,,,0.08,VWS V14.01,2013-03-27 03:06:00,
2013-03-26 23:07:00,31.6,25.9,30.15,WNW,292,3.1,3.6,79,0.00,,,0.08,VWS V14.01,2013-03-27 03:07:00,
2013-03-26 23:08:00,32.0,26.2,30.15,NNW,338,3.1,3.1,79,0.00,,,0.08,VWS V14.01,2013-03-27 03:08:00,
2013-03-26 23:13:00,32.2,26.1,30.15,NNW,338,1.3,4.3,78,0.00,,,0.08,VWS V14.01,2013-03-27 03:13:00,
2013-03-26 23:18:00,32.2,26.1,30.15,West,270,2.7,6.3,78,0.00,,,0.08,VWS V14.01,2013-03-27 03:18:00,
2013-03-26 23:23:00,32.0,26.2,30.15,NW,315,5.4,6.9,79,0.00,,,0.08,VWS V14.01,2013-03-27 03:23:00,
2013-03-26 23:28:00,32.2,26.4,30.15,East,90,1.3,5.8,79,0.00,,,0.08,VWS V14.01,2013-03-27 03:28:00,
2013-03-26 23:33:00,32.0,26.2,30.15,NW,315,1.6,4.5,79,0.00,,,0.08,VWS V14.01,2013-03-27 03:33:00,
2013-03-26 23:38:00,31.8,26.1,30.15,NW,315,0.9,3.6,79,0.00,,,0.08,VWS V14.01,2013-03-27 03:38:00,
2013-03-26 23:43:00,31.8,26.1,30.15,WSW,248,1.6,3.4,79,0.00,,,0.08,VWS V14.01,2013-03-27 03:43:00,
2013-03-26 23:48:00,31.6,25.9,30.15,West,270,2.5,2.5,79,0.00,,,0.08,VWS V14.01,2013-03-27 03:48:00,
2013-03-26 23:53:00,31.6,26.2,30.15,SSW,202,1.6,3.6,80,0.00,,,0.08,VWS V14.01,2013-03-27 03:53:00,
2013-03-26 23:58:00,31.8,26.4,30.15,NW,315,1.6,4.5,80,0.00,,,0.08,VWS V14.01,2013-03-27 03:58:00,